EW7824 Weather Reports


Display with metric or nautical units.
time (UTC)temp
F
wind
direction
speed
MPH
gust
MPH
rain 1hr
in
rain 24hr
in
rain mn
in
humidity
%
barometer
mb
20260510131402 56 64 2.0 6.0 0.03 0.06 0.03 76 1020.2
20260510130903 56 41 3.0 9.0 0.03 0.06 0.03 75 1020.2
20260510130403 57 10 5.0 8.0 0.02 0.05 0.02 73 1020.4
20260510124905 58 67 3.0 7.0 0.00 0.03 0.00 65 1019.5
20260510124403 58 69 3.0 6.0 0.00 0.03 0.00 65 1019.5
20260510123405 58 30 3.0 9.0 0.00 0.03 0.00 63 1019.1
20260510121903 59 78 2.0 9.0 0.00 0.03 0.00 56 1018.1
20260510121403 59 28 7.0 13.0 0.00 0.03 0.00 57 1017.9
20260510120903 58 46 5.0 10.0 0.00 0.03 0.00 58 1017.6
20260510120403 58 58 3.0 14.0 0.00 0.03 0.00 58 1017.3
20260510114903 58 63 7.0 10.0 0.00 0.03 0.00 58 1016.3
20260510114403 58 73 6.0 16.0 0.00 0.03 0.00 59 1016.2
20260510113903 58 42 10.0 16.0 0.00 0.03 0.00 60 1015.9
20260510113403 58 41 12.0 18.0 0.00 0.03 0.00 61 1015.8
20260510111904 59 45 13.0 18.0 0.00 0.03 0.00 61 1015.3
20260510111403 59 38 12.0 17.0 0.00 0.03 0.00 61 1015.3
20260510110902 59 47 12.0 17.0 0.00 0.03 0.00 60 1015.2
20260510104903 60 39 13.0 17.0 0.00 0.03 0.00 60 1015.0
20260510104403 60 39 7.0 13.0 0.00 0.03 0.00 59 1015.2
20260510103903 60 34 9.0 13.0 0.00 0.03 0.00 58 1015.1
20260510101904 61 40 10.0 17.0 0.00 0.03 0.00 57 1014.7
20260510101404 61 46 12.0 22.0 0.00 0.03 0.00 57 1014.5
20260510100903 61 69 7.0 15.0 0.00 0.03 0.00 57 1014.5
20260510100404 61 37 7.0 15.0 0.00 0.03 0.00 57 1014.5
20260510094904 61 53 11.0 16.0 0.00 0.03 0.00 57 1014.2
20260510094403 61 31 7.0 14.0 0.00 0.03 0.00 57 1014.2
20260510093903 61 57 9.0 14.0 0.00 0.03 0.00 57 1014.0
20260510093403 61 45 10.0 21.0 0.00 0.03 0.00 57 1014.0
20260510091903 61 46 7.0 18.0 0.00 0.03 0.00 57 1013.5
20260510091403 61 57 10.0 18.0 0.00 0.03 0.00 56 1013.7
20260510090903 61 54 9.0 17.0 0.00 0.03 0.00 57 1013.7
20260510090404 61 45 10.0 18.0 0.00 0.03 0.00 57 1013.7
20260510084904 61 61 9.0 16.0 0.00 0.03 0.00 58 1013.6
20260510084403 61 46 8.0 10.0 0.00 0.03 0.00 58 1013.6
20260510083903 61 52 7.0 13.0 0.00 0.03 0.00 59 1013.5
20260510083403 61 53 9.0 14.0 0.00 0.03 0.00 59 1013.5
20260510081904 61 65 9.0 14.0 0.00 0.03 0.00 59 1013.3
20260510081403 61 56 6.0 14.0 0.00 0.03 0.00 60 1013.3
20260510080403 62 49 11.0 16.0 0.00 0.03 0.00 60 1013.3
20260510074903 62 45 6.0 8.0 0.00 0.03 0.00 61 1013.1
20260510074403 62 46 4.0 6.0 0.00 0.03 0.00 61 1012.9
20260510073904 62 60 5.0 10.0 0.00 0.03 0.00 60 1012.8
20260510073403 63 56 3.0 10.0 0.00 0.03 0.00 59 1012.8
20260510071904 63 37 6.0 10.0 0.00 0.03 0.00 59 1013.0
20260510071403 64 44 4.0 9.0 0.00 0.03 0.00 58 1012.8
20260510070903 64 70 5.0 10.0 0.00 0.03 0.00 58 1012.6
20260510064904 64 63 5.0 9.0 0.00 0.03 0.00 57 1012.4
20260510064404 64 37 6.0 9.0 0.00 0.03 0.00 56 1012.4
20260510063903 65 68 5.0 10.0 0.00 0.03 0.00 56 1012.3
20260510063404 65 71 5.0 9.0 0.00 0.03 0.00 55 1012.2
20260510061403 65 66 4.0 6.0 0.00 0.03 0.00 56 1012.1
20260510060903 65 59 5.0 9.0 0.00 0.03 0.00 57 1012.0
20260510054903 65 59 4.0 10.0 0.00 0.03 0.00 56 1011.6
20260510053903 66 64 3.0 7.0 0.00 0.03 0.00 56 1011.2
20260510051904 65 45 6.0 14.0 0.00 0.03 0.00 58 1011.2
20260510051403 65 44 8.0 14.0 0.00 0.03 0.00 59 1011.2
20260510050903 65 48 7.0 10.0 0.00 0.03 0.00 59 1011.1
20260510050404 65 46 6.0 9.0 0.00 0.03 0.00 61 1011.1
20260510044403 65 35 5.0 7.0 0.00 0.03 0.03 64 1011.0
20260510043903 65 19 5.0 7.0 0.00 0.03 0.03 63 1010.8
20260510043404 65 34 1.0 2.0 0.00 0.03 0.03 62 1010.8
20260510041905 65 33 0.0 0.0 0.00 0.03 0.03 59 1010.9
20260510041404 65 33 0.0 2.0 0.00 0.03 0.03 60 1010.9
20260510040404 66 67 0.0 6.0 0.00 0.03 0.03 59 1010.9
20260510033904 67 99 0.0 0.0 0.00 0.03 0.03 55 1010.8
20260510033404 68 99 0.0 0.0 0.00 0.03 0.03 54 1010.7
20260510031904 69 99 0.0 0.0 0.00 0.03 0.03 50 1010.3
20260510031404 69 99 0.0 0.0 0.00 0.03 0.03 50 1010.1
20260510030903 69 99 0.0 1.0 0.00 0.03 0.03 47 1010.0
20260510030404 69 148 2.0 7.0 0.00 0.03 0.03 47 1010.0
20260510023903 68 161 2.0 6.0 0.03 0.03 0.03 54 1010.1
20260510023404 68 162 3.0 7.0 0.03 0.03 0.03 55 1009.9
20260510021904 68 123 0.0 2.0 0.03 0.03 0.03 56 1009.6
20260510020904 69 192 1.0 2.0 0.03 0.03 0.03 55 1009.9
20260510020404 71 318 0.0 14.0 0.03 0.03 0.03 52 1010.0
20260510014905 74 18 9.0 16.0 0.02 0.02 0.02 49 1010.3
20260510014404 75 331 3.0 10.0 0.01 0.01 0.01 42 1010.8
20260510013903 76 248 12.0 15.0 0.00 0.00 0.00 36 1010.7
20260510013405 77 247 8.0 17.0 0.00 0.00 0.00 32 1010.3
20260510011403 80 327 3.0 6.0 0.00 0.00 0.00 31 1009.4
20260510010904 80 307 1.0 5.0 0.00 0.00 0.00 25 1009.0
20260510010405 80 175 3.0 8.0 0.00 0.00 0.00 23 1008.6
20260510004904 80 107 1.0 5.0 0.00 0.00 0.00 21 1007.6
20260510004404 80 105 2.0 5.0 0.00 0.00 0.00 20 1007.3
20260510003903 81 133 1.0 5.0 0.00 0.00 0.00 20 1006.9
20260510003405 81 115 2.0 6.0 0.00 0.00 0.00 20 1006.8
20260510001904 82 140 1.0 2.0 0.00 0.00 0.00 19 1006.4
20260510000903 82 122 1.0 2.0 0.00 0.00 0.00 18 1006.4
20260509234904 84 120 3.0 6.0 0.00 0.00 0.00 18 1006.3
20260509234403 84 157 3.0 8.0 0.00 0.00 0.00 18 1006.3
20260509233903 84 116 3.0 8.0 0.00 0.00 0.00 17 1006.4
20260509233404 85 147 4.0 8.0 0.00 0.00 0.00 17 1006.5
20260509231904 86 154 3.0 7.0 0.00 0.00 0.00 16 1006.7
20260509231405 87 143 2.0 8.0 0.00 0.00 0.00 16 1006.7
20260509230903 87 165 6.0 14.0 0.00 0.00 0.00 16 1006.8
20260509230406 88 132 1.0 9.0 0.00 0.00 0.00 16 1006.9
20260509223902 88 142 1.0 5.0 0.00 0.00 0.00 17 1006.8
20260509223402 88 162 5.0 10.0 0.00 0.00 0.00 15 1006.7
20260509221401 89 261 3.0 6.0 0.00 0.00 0.00 15 1006.6
20260509220902 88 150 5.0 9.0 0.00 0.00 0.00 14 1006.7
20260509214902 88 138 3.0 10.0 0.00 0.00 0.00 15 1006.6
20260509214403 89 267 5.0 8.0 0.00 0.00 0.00 14 1006.6
20260509213901 89 264 5.0 8.0 0.00 0.00 0.00 15 1006.7
20260509211401 87 167 3.0 9.0 0.00 0.00 0.00 16 1007.0
20260509210902 87 237 6.0 13.0 0.00 0.00 0.00 15 1007.1
20260509210402 88 192 6.0 13.0 0.00 0.00 0.00 17 1007.2
20260509204902 88 137 9.0 13.0 0.00 0.00 0.00 15 1007.3
20260509204403 89 221 7.0 14.0 0.00 0.00 0.00 16 1007.3
20260509203902 89 73 2.0 5.0 0.00 0.00 0.00 16 1007.3
20260509203403 89 275 5.0 7.0 0.00 0.00 0.00 15 1007.4
20260509201903 88 89 3.0 7.0 0.00 0.00 0.00 16 1007.6
20260509201401 88 206 4.0 13.0 0.00 0.00 0.00 15 1007.6
20260509200902 88 249 5.0 10.0 0.00 0.00 0.00 16 1007.7
20260509200403 88 151 6.0 10.0 0.00 0.00 0.00 16 1007.8
20260509194902 88 286 6.0 13.0 0.00 0.00 0.00 18 1008.0
20260509193902 88 146 3.0 7.0 0.00 0.00 0.00 20 1008.2
20260509193403 88 201 5.0 10.0 0.00 0.00 0.00 18 1008.3
20260509191402 86 265 5.0 9.0 0.00 0.00 0.00 18 1008.4
20260509190902 86 197 7.0 10.0 0.00 0.00 0.00 16 1008.4
20260509184902 86 239 6.0 14.0 0.00 0.00 0.00 19 1008.7
20260509184401 86 249 6.0 16.0 0.00 0.00 0.00 19 1008.8
20260509183901 89 227 3.0 8.0 0.00 0.00 0.00 15 1008.8
20260509183403 88 321 4.0 13.0 0.00 0.00 0.00 19 1008.9
20260509181902 86 214 9.0 14.0 0.00 0.00 0.00 17 1009.1
20260509181402 85 171 5.0 14.0 0.00 0.00 0.00 19 1009.3
20260509180903 85 189 8.0 14.0 0.00 0.00 0.00 20 1009.3
20260509174902 83 112 4.0 13.0 0.00 0.00 0.00 21 1009.5
20260509173902 83 199 6.0 10.0 0.00 0.00 0.00 20 1009.7
20260509173402 84 234 8.0 14.0 0.00 0.00 0.00 21 1009.8
20260509171903 82 204 7.0 13.0 0.00 0.00 0.00 22 1010.1
20260509171401 80 207 7.0 10.0 0.00 0.00 0.00 23 1010.2
20260509170403 81 251 9.0 15.0 0.00 0.00 0.00 23 1010.2
20260509164902 83 266 9.0 16.0 0.00 0.00 0.00 25 1010.4
20260509164402 82 230 11.0 17.0 0.00 0.00 0.00 25 1010.4
20260509163903 81 182 8.0 17.0 0.00 0.00 0.00 25 1010.4
20260509163402 82 221 10.0 16.0 0.00 0.00 0.00 24 1010.3
20260509161402 80 245 9.0 15.0 0.00 0.00 0.00 27 1010.4
20260509160901 79 254 10.0 16.0 0.00 0.00 0.00 29 1010.4
20260509160402 79 238 9.0 13.0 0.00 0.00 0.00 33 1010.5
20260509154902 77 233 7.0 14.0 0.00 0.00 0.00 34 1010.4
20260509154402 77 224 9.0 9.0 0.00 0.00 0.00 33 1010.5
20260509153902 76 224 9.0 14.0 0.00 0.00 0.00 34 1010.5
20260509153402 76 244 8.0 15.0 0.00 0.00 0.00 35 1010.4
20260509151902 77 209 9.0 15.0 0.00 0.00 0.00 34 1010.6
20260509151403 76 264 9.0 13.0 0.00 0.00 0.00 35 1010.6
20260509150902 75 261 6.0 10.0 0.00 0.00 0.00 37 1010.6
20260509150402 75 257 8.0 13.0 0.00 0.00 0.00 37 1010.5
20260509144902 74 216 4.0 7.0 0.00 0.00 0.00 41 1010.3
20260509144402 73 243 5.0 7.0 0.00 0.00 0.00 42 1010.3
20260509143902 73 246 5.0 8.0 0.00 0.00 0.00 42 1010.2
20260509143402 72 250 5.0 10.0 0.00 0.00 0.00 44 1010.2
20260509141902 70 219 6.0 10.0 0.00 0.00 0.00 46 1010.2
20260509141402 69 260 5.0 10.0 0.00 0.00 0.00 49 1010.2
20260509140402 68 253 5.0 9.0 0.00 0.00 0.00 52 1010.2
20260509134903 66 224 3.0 7.0 0.00 0.00 0.00 56 1010.1
20260509133902 64 281 2.0 8.0 0.00 0.00 0.00 59 1010.1
20260509133402 64 211 5.0 8.0 0.00 0.00 0.00 59 1010.2